Missoula, MT

9:55 AM MDT on May 25, 2017 (GMT -0600)
Missoula International

Weather History for KMSO - August, 2014

Change the Weather History Date:

Friday, August 29, 2014

  Actual Average Record
Temperature  
Mean Temperature 68 °F 64 °F  
Max Temperature 87 °F 81 °F 94 °F (1948)
Min Temperature 48 °F 47 °F 32 °F (1980)
Degree Days  
Heating Degree Days 0 3  
Month to date heating degree days 32 41  
Since 1 June heating degree days 215 239  
Since 1 July heating degree days 38 79  
Cooling Degree Days 3 2  
Month to date cooling degree days 135 120  
Year to date cooling degree days 375 314  
Since 1 June cooling degree days 375 308  
Growing Degree Days 18 (Base 50)    
Moisture  
Dew Point 40 °F    
Average Humidity 47    
Maximum Humidity 80    
Minimum Humidity 14    
Precipitation  
Precipitation 0.00 in 0.05 in 0.32 in (1986)
Month to date precipitation 0.93 1.11  
Year to date precipitation 10.01 9.95  
Snow  
Snow 0.00 in - - ()
Month to date snowfall 0.0  
Year to date snowfall 51.9  
Since 1 July snowfall 0.0  
Snow Depth 0.00 in    
Sea Level Pressure  
Sea Level Pressure 29.90 in    
Wind  
Wind Speed 5 mph (NW)    
Max Wind Speed 22 mph    
Max Gust Speed 26 mph    
Visibility 10 miles    
Events      
T = Trace of Precipitation, MM = Missing Value Source: NWS Daily Summary

Daily Weather History Graph

Daily Weather History Graph

Search for Another Location

Airport or City:

Trip Planner

Search our weather history database for the weather conditions in past years. The results will help you decide how hot, cold, wet, or windy it might be!

Date:

Astronomy

Aug. 29, 2014 Rise Set
Actual Time 6:52 AM MDT 8:21 PM MDT
Civil Twilight 6:20 AM MDT 8:53 PM MDT
Nautical Twilight 5:41 AM MDT 9:31 PM MDT
Astronomical Twilight 5:00 AM MDT 10:12 PM MDT
Moon 11:02 AM MDT (8/29) 10:02 PM MDT (8/29)
Length of Visible Light 14h 32m
Length of Day
13h 29m
Waxing Crescent, 15% of the Moon is Illuminated
Aug 29
Waxing Crescent
Sep 2
First Quarter
Sep 8
Full
Sep 15
Last Quarter
Sep 24
New

Hourly Weather History & Observations

Time (MDT) Temp. Dew Point Humidity Pressure Visibility Wind Dir Wind Speed Gust Speed Precip Events Conditions
12:53 AM 60.1 °F 42.1 °F 51% 29.98 in 10.0 mi Calm Calm - N/A   Clear
1:53 AM 57.9 °F 43.0 °F 58% 29.99 in 10.0 mi Calm Calm - N/A   Clear
2:53 AM 55.9 °F 42.1 °F 60% 29.99 in 10.0 mi Calm Calm - N/A   Clear
3:53 AM 55.0 °F 42.1 °F 62% 29.99 in 10.0 mi Calm Calm - N/A   Clear
4:53 AM 54.0 °F 42.1 °F 64% 30.00 in 10.0 mi Calm Calm - N/A   Clear
5:53 AM 50.0 °F 42.1 °F 74% 30.01 in 10.0 mi Calm Calm - N/A   Clear
6:53 AM 48.0 °F 42.1 °F 80% 30.03 in 10.0 mi Calm Calm - N/A   Clear
7:53 AM 53.1 °F 45.0 °F 74% 30.02 in 10.0 mi Calm Calm - N/A   Clear
8:53 AM 55.4 °F 44.6 °F 67% 30.06 in 10.0 mi Calm Calm - N/A   Clear
9:53 AM 61.0 °F 45.0 °F 56% 30.01 in 10.0 mi Calm Calm - N/A   Clear
10:53 AM 66.9 °F 46.0 °F 47% 29.98 in 10.0 mi Variable 3.5 mph - N/A   Clear
11:53 AM 72.0 °F 45.0 °F 38% 29.95 in 10.0 mi Calm Calm - N/A   Clear
12:53 PM 77.0 °F 42.1 °F 29% 29.91 in 10.0 mi SE 6.9 mph - N/A   Clear
1:53 PM 78.8 °F 39.2 °F 24% 29.93 in 10.0 mi SSE 5.8 mph - N/A   Clear
2:53 PM 81.0 °F 37.0 °F 21% 29.84 in 10.0 mi Variable 3.5 mph - N/A   Clear
3:53 PM 84.0 °F 36.0 °F 18% 29.81 in 10.0 mi Variable 4.6 mph - N/A   Clear
4:53 PM 86.0 °F 35.1 °F 16% 29.78 in 10.0 mi Variable 3.5 mph - N/A   Clear
5:53 PM 86.0 °F 33.1 °F 15% 29.78 in 10.0 mi WNW 13.8 mph - N/A   Clear
6:53 PM 84.0 °F 30.0 °F 14% 29.77 in 10.0 mi WNW 21.9 mph 26.5 mph N/A   Clear
7:53 PM 79.0 °F 36.0 °F 21% 29.76 in 10.0 mi NW 8.1 mph - N/A   Clear
8:53 PM 73.4 °F 37.4 °F 27% 29.82 in 10.0 mi NW 4.6 mph - N/A   Clear
9:53 PM 72.0 °F 37.0 °F 28% 29.78 in 10.0 mi NNW 9.2 mph - N/A   Clear
10:53 PM 68.0 °F 37.0 °F 32% 29.79 in 10.0 mi NNW 9.2 mph - N/A   Clear
11:53 PM 72.0 °F 34.0 °F 25% 29.78 in 10.0 mi NNW 8.1 mph - N/A   Mostly Cloudy